Temp
14 13 13 13 12 12 12 11 11 11 11 10 10 10 10 10 10 10 10 10 10 10 10 10 10 9 9 9 9 9 8 8 8 7 7 7 7 6 6 5 5 5
14 13 13 13 12 12 12 11 11 11 10 10 10 10 10 10 10 10 10 10 10 10 10 10 9 9 9 9 9 8 8 8 7 7 7 7 6 6 6 5 5 5
13 13 13 13 12 12 11 11 11 11 10 10 10 10 10 10 10 10 10 10 10 10 10 9 9 9 9 8 8 8 8 8 7 7 7 7 6 6 6 6 5 5
13 13 13 12 12 12 11 11 11 11 10 10 10 10 10 10 10 10 10 10 10 10 9 9 9 9 8 8 8 8 7 7 7 7 7 6 6 6 6 6 5 5
13 13 12 12 12 11 11 11 11 10 10 10 10 10 10 10 10 10 10 10 10 9 9 9 9 9 8 8 8 8 7 7 7 7 6 6 6 6 6 6 6 5
12 12 12 12 12 11 11 11 11 10 10 10 10 10 10 10 10 10 10 9 9 9 9 9 9 8 8 8 8 7 7 7 7 7 6 6 6 6 6 6 5 5
12 12 12 12 11 11 11 11 10 10 10 10 10 10 10 10 10 9 9 9 9 9 9 9 8 8 8 8 8 7 7 7 7 7 6 6 6 6 6 6 5 5
12 12 11 11 11 11 11 10 10 10 10 10 9 9 9 9 9 9 9 9 9 9 9 9 8 8 8 8 7 7 7 7 7 7 6 6 6 6 6 6 5 5
11 11 11 11 11 11 10 10 10 10 10 10 9 9 9 9 9 9 9 9 9 9 8 8 8 8 8 8 7 7 7 7 7 7 7 6 6 6 6 6 5 5
11 11 11 11 11 10 10 10 10 10 10 10 9 9 9 9 9 9 9 9 9 8 8 8 8 8 8 7 7 7 7 7 7 7 7 7 6 6 6 6 5 5
11 11 11 11 10 10 10 10 10 10 9 9 9 9 9 9 9 9 9 9 8 8 8 8 8 8 8 7 7 7 7 7 7 7 7 7 6 6 6 6 5 5
10 10 10 10 10 10 10 10 10 9 9 9 9 9 9 9 9 9 8 8 8 8 8 8 8 8 7 7 7 7 7 7 7 7 7 7 7 6 6 6 6 5
10 10 10 10 10 10 10 10 9 9 9 9 9 9 9 8 8 8 8 8 8 8 8 8 8 7 7 7 7 7 7 7 7 7 7 7 7 6 6 6 5 5
10 10 10 10 10 10 9 9 9 9 9 9 9 9 9 8 8 8 8 8 8 8 8 7 7 7 7 7 7 7 7 7 7 7 7 7 7 6 6 6 5 5
10 10 10 10 10 9 9 9 9 9 9 9 9 9 8 8 7 8 8 7 7 8 7 7 7 7 7 8 8 7 7 7 7 7 7 7 7 6 6 6 6 5
10 10 10 10 10 9 9 9 9 9 8 8 8 8 8 7 7 7 7 7 7 7 7 7 7 7 8 8 8 8 8 7 7 7 7 7 7 7 6 6 6 6
10 10 10 10 9 9 9 9 8 8 8 8 8 8 7 7 7 7 7 7 7 7 7 7 7 7 8 8 8 8 8 8 7 7 7 7 7 7 6 6 6 6
10 10 9 9 9 9 9 8 8 8 8 8 8 7 7 7 7 7 6 6 7 7 7 7 7 7 7 8 8 8 8 8 8 7 7 7 7 7 6 6 6 6
10 10 9 9 9 9 8 8 8 8 8 8 8 7 7 6 6 6 6 6 6 7 7 7 7 7 7 7 8 8 8 8 8 8 7 7 7 6 6 6 6 6
10 9 9 9 9 8 8 8 8 8 8 8 7 7 6 6 6 6 6 6 6 7 7 7 7 7 7 7 7 8 8 7 7 8 7 7 7 6 6 6 6 6
10 9 9 9 8 8 8 8 8 8 7 7 7 7 7 6 6 6 6 6 6 6 7 7 7 7 7 7 7 7 7 7 7 7 7 7 7 6 6 6 6 6
9 9 9 9 8 8 8 8 8 7 7 7 7 7 6 6 6 6 6 6 6 6 6 7 7 7 7 7 7 7 7 7 7 7 7 7 7 6 6 6 6 6
9 9 9 8 8 8 8 8 7 7 7 7 7 6 6 6 6 6 6 7 6 6 6 7 6 7 7 7 7 7 7 7 7 7 7 7 6 6 6 6 6 6
9 9 9 8 8 8 8 8 7 7 7 7 7 7 6 6 6 6 7 7 7 7 7 7 7 6 7 7 7 7 7 7 7 7 6 6 6 6 6 6 6 6
9 9 9 8 8 8 8 8 7 7 7 7 7 7 6 6 7 7 7 7 7 7 7 7 7 7 7 7 7 7 7 6 6 6 6 6 6 6 6 6 6 6
9 9 9 9 8 8 8 8 8 7 7 7 7 7 6 7 7 7 7 7 7 7 7 7 7 7 7 7 7 7 7 6 6 6 6 6 6 6 6 6 6 6
Height
830 832 834 836 838 839 839 840 840 841 842 843 844 844 845 845 846 845 845 844 844 844 845 845 845 846 846 847 848 848 849 850 851 853 853 854 855 855 856 856 856 856
831 833 835 837 838 839 840 841 841 842 843 845 845 845 846 846 846 846 845 845 845 846 846 847 847 848 848 849 850 850 851 852 854 855 856 856 857 857 857 858 857 857
831 833 835 837 838 839 840 841 842 842 844 845 846 847 847 847 847 847 846 846 846 847 848 849 849 850 851 852 852 853 854 855 856 857 858 858 859 859 859 859 858 858
832 834 835 837 838 839 840 841 842 843 845 846 847 847 848 848 847 847 847 848 848 849 850 850 851 852 853 854 854 855 857 858 859 859 859 860 861 861 861 860 859 859
832 834 836 837 838 840 840 841 842 843 845 846 847 848 848 848 848 848 848 849 849 850 851 852 853 854 855 856 856 858 859 859 861 861 861 861 862 862 862 861 861 861
833 834 836 837 839 840 840 841 842 844 845 847 848 848 849 849 849 849 849 850 850 851 852 853 854 855 856 858 858 859 860 861 862 862 862 863 863 863 863 863 862 863
833 834 836 837 839 840 841 841 843 845 846 847 848 849 849 849 850 850 850 850 851 852 853 854 856 857 858 859 860 861 862 863 863 864 864 864 864 864 864 864 864 865
833 835 836 837 839 840 841 842 843 845 846 848 849 850 850 850 850 851 851 851 852 853 855 856 857 858 860 860 861 862 863 864 865 865 864 865 865 865 866 867 866 866
833 835 836 837 839 840 841 842 844 846 847 848 850 850 851 851 851 851 852 852 853 854 856 857 858 860 861 862 863 863 864 865 865 866 865 866 866 867 868 868 868 868
833 835 836 837 839 840 841 843 844 846 848 849 850 851 851 852 852 852 853 853 854 856 857 858 860 861 862 863 864 864 865 865 866 866 867 867 868 869 869 869 869 868
833 835 836 837 839 840 841 843 845 847 849 849 850 851 852 852 853 853 854 855 856 857 858 860 861 862 863 864 865 865 866 866 867 867 868 868 869 870 870 870 870 869
833 835 836 837 839 840 842 844 846 848 849 850 850 851 852 853 853 854 855 856 857 858 860 861 862 863 864 864 865 866 867 867 868 868 869 870 870 871 871 871 870 870
833 835 836 838 840 841 843 845 847 849 850 850 851 851 852 854 854 855 856 857 858 860 861 862 863 864 865 865 866 867 867 868 869 869 870 870 871 871 871 871 871 871
833 835 836 838 840 842 844 846 847 849 850 851 851 852 853 854 855 856 857 858 859 861 862 863 864 865 866 866 867 868 868 869 870 870 870 871 871 871 871 872 871 871
833 835 836 839 841 842 844 846 848 849 850 851 852 852 853 855 856 857 858 859 860 861 863 864 865 866 866 867 868 868 869 870 870 871 871 871 872 872 872 872 872 871
833 835 837 839 841 843 845 846 848 849 850 851 852 853 854 855 856 857 858 859 861 862 863 864 866 866 867 868 869 869 870 870 871 871 871 872 872 872 872 872 872 871
833 835 837 839 841 843 845 846 848 849 851 852 852 853 854 856 857 858 859 860 861 862 864 865 866 867 868 869 869 870 871 871 871 872 872 872 873 873 873 873 872 872
832 834 837 839 841 843 845 846 848 849 851 852 852 853 855 856 857 859 860 861 862 863 864 866 867 868 868 869 870 871 871 871 872 872 872 873 873 873 873 873 873 872
832 834 836 839 841 843 845 846 848 849 851 852 852 854 855 856 858 859 860 861 862 863 865 866 867 868 869 870 870 871 871 872 872 872 873 873 874 874 874 873 873 872
831 833 836 838 840 842 844 846 848 849 851 852 852 854 855 857 858 859 860 861 862 863 865 866 867 868 869 870 870 870 871 871 872 872 873 873 874 874 874 874 873 872
830 833 835 837 839 841 844 846 847 849 851 852 853 854 856 857 858 859 860 861 862 863 865 866 868 869 869 870 870 870 870 871 871 872 872 873 874 874 874 874 873 872
829 832 834 836 838 840 843 845 847 849 851 852 853 855 856 858 859 859 860 861 862 863 865 867 868 869 869 870 870 870 870 870 871 871 872 873 873 874 874 874 873 872
828 830 833 835 837 839 842 844 847 849 851 852 853 855 857 858 859 860 860 861 862 864 865 867 868 869 869 870 870 871 871 871 871 871 872 872 873 873 874 874 873 872
827 829 832 834 836 839 841 844 846 849 851 852 854 855 857 858 859 860 861 862 863 864 866 867 867 868 869 869 870 870 870 870 871 871 872 872 872 873 873 873 873 872
826 829 831 833 836 838 841 843 846 849 851 853 855 856 857 858 859 860 861 862 863 865 866 867 867 868 868 869 869 869 870 870 870 871 871 871 872 872 873 873 872 872
826 828 830 833 835 838 841 843 846 848 851 853 855 857 858 858 859 860 861 863 864 865 866 867 868 868 868 869 869 869 869 870 870 870 871 871 871 872 872 872 872 871
Wind_Speed
22 22 22 20 19 18 18 17 17 18 19 19 20 21 21 21 21 22 22 22 22 22 22 21 21 22 22 22 23 24 25 25 24 24 25 26 26 26 26 25 25 26
23 23 22 21 21 19 18 18 17 18 20 20 20 21 22 22 22 22 22 22 22 22 22 22 21 21 22 22 22 24 25 26 26 25 26 26 25 25 25 24 25 25
23 23 22 22 21 20 20 19 18 18 20 20 21 21 22 22 22 22 22 22 23 23 22 22 22 21 21 22 22 23 25 27 27 26 26 26 24 24 23 23 24 25
23 22 22 22 21 21 21 19 18 19 20 21 21 21 22 22 22 22 22 22 23 23 22 22 21 21 21 21 22 23 24 25 26 25 26 25 23 23 22 22 23 23
23 22 22 22 21 21 20 19 19 20 21 22 21 21 21 21 22 22 23 23 23 23 22 22 21 21 21 20 21 22 22 23 23 23 24 24 22 22 22 21 22 21
22 22 22 21 20 20 20 19 20 22 22 22 22 21 21 21 22 22 23 23 23 23 22 22 21 21 20 19 20 20 21 21 20 20 22 21 21 21 21 21 21 20
22 22 21 20 20 20 20 21 22 22 22 22 22 21 21 21 22 22 22 22 23 22 21 21 20 20 19 19 20 20 19 19 18 19 20 19 19 19 19 19 20 19
21 21 21 21 21 21 21 23 23 22 22 22 22 21 20 20 21 22 21 21 21 21 20 20 20 20 18 18 19 20 18 17 16 17 18 17 17 17 17 18 18 18
21 21 22 21 22 22 23 23 22 22 22 21 21 21 20 19 20 20 21 20 20 21 20 20 20 20 18 17 18 19 18 17 16 16 17 17 16 15 15 17 18 18
22 22 23 22 22 23 23 23 22 22 22 20 20 20 19 19 19 19 19 19 20 20 20 20 20 19 18 17 18 19 18 17 17 17 18 17 16 15 13 15 17 18
23 24 23 22 23 23 23 23 23 22 20 19 19 18 18 18 18 18 18 19 20 20 20 20 19 17 17 19 19 18 17 17 17 16 16 16 16 14 14 14 16 16
24 23 22 23 23 23 23 23 22 20 19 18 16 16 16 17 18 18 18 19 19 19 19 18 17 17 18 19 19 17 15 15 14 14 13 13 14 14 14 14 15 15
23 22 22 23 22 23 22 22 20 19 17 16 14 13 15 17 18 19 18 19 19 19 18 17 17 18 17 17 16 15 14 12 12 11 11 11 12 13 13 12 13 14
23 22 22 23 22 22 22 21 19 17 15 14 13 13 15 18 19 19 19 19 19 18 18 17 17 17 15 14 14 13 12 11 10 9 9 9 10 10 10 10 11 13
24 24 24 23 23 22 22 21 19 17 15 13 12 13 15 18 20 20 20 19 19 18 17 17 16 15 14 13 12 12 11 9 9 8 7 7 7 8 8 9 11 13
26 26 25 24 24 23 23 22 19 17 15 13 13 14 16 18 19 19 19 19 19 18 17 17 16 15 14 13 11 10 10 9 8 7 5 5 5 6 7 8 10 12
27 27 26 25 25 24 24 22 20 17 15 14 14 16 17 17 18 18 19 18 18 18 17 16 16 14 13 12 11 10 9 8 8 7 6 5 4 5 6 8 10 11
28 28 27 26 26 25 24 23 20 18 16 15 16 17 17 17 17 17 18 18 18 18 17 16 15 13 12 11 11 10 9 8 6 5 6 7 5 4 5 7 10 10
29 29 28 27 27 26 25 23 20 18 16 16 16 16 16 17 17 17 18 17 17 17 16 15 14 13 11 11 10 10 9 7 5 4 6 8 6 4 4 4 8 9
30 30 29 28 28 27 25 23 21 18 16 16 16 17 17 17 18 18 18 17 17 17 16 15 13 12 10 10 10 9 7 6 6 5 7 8 6 3 3 2 6 7
31 30 30 29 28 28 26 24 22 19 17 16 16 17 18 18 18 18 18 17 17 17 16 15 13 11 10 9 8 7 6 6 6 6 7 8 8 4 2 1 4 5
31 31 30 30 29 29 28 26 23 20 18 17 17 18 18 18 18 17 17 17 17 16 16 14 12 11 9 8 7 7 7 7 7 6 6 7 8 6 3 1 2 4
32 32 31 31 31 30 29 27 25 22 20 19 20 20 19 18 17 16 16 16 16 15 15 14 12 10 9 8 7 7 7 7 7 7 7 6 7 6 3 1 1 4
33 32 32 32 31 31 30 28 26 23 21 20 20 20 19 18 17 17 15 14 14 14 14 14 12 10 8 8 8 8 8 9 9 8 8 7 7 6 4 2 1 4
33 33 32 32 31 31 30 29 27 25 22 21 20 20 20 19 17 17 16 14 13 13 12 12 11 10 8 7 7 7 7 9 10 10 9 9 7 6 5 4 2 3
33 33 32 32 31 30 30 29 27 26 24 23 21 19 19 18 17 17 16 15 14 12 11 10 10 9 8 7 6 6 6 7 8 9 10 9 8 7 6 5 2 2
Wind_Direction
168 167 164 160 156 153 150 148 147 145 144 142 139 135 133 131 131 129 125 121 118 113 109 108 107 106 103 99 95 90 86 87 89 93 94 91 88 84 81 77 71 66
167 167 164 159 155 152 150 148 146 144 143 141 138 136 134 132 131 128 125 122 119 114 111 109 107 107 104 101 97 91 87 90 94 95 92 88 85 82 80 76 70 64
168 167 166 161 156 153 150 147 143 142 142 140 138 138 136 133 131 127 124 121 119 116 113 110 108 107 105 102 98 92 91 94 96 93 87 83 82 80 78 75 69 62
167 167 165 161 156 153 150 146 141 142 144 142 141 140 138 135 131 128 125 122 120 118 115 113 111 109 107 105 100 96 96 96 94 90 85 80 77 77 75 71 66 60
165 165 163 159 155 152 150 147 143 144 146 145 143 142 141 138 134 130 127 124 122 120 118 116 114 113 111 108 103 102 101 98 94 90 86 82 75 71 69 66 63 58
162 162 161 158 155 153 151 148 147 148 148 147 145 143 142 139 137 133 130 127 125 123 121 119 118 116 114 110 107 106 104 101 97 91 86 83 76 69 64 61 60 56
161 161 160 157 155 155 152 149 151 150 149 149 147 145 143 140 138 136 133 131 128 126 125 123 121 120 118 114 111 110 107 104 101 94 87 82 76 70 64 59 58 56
162 161 160 158 156 156 153 151 153 153 152 151 148 146 146 142 138 137 136 134 131 129 128 126 125 123 121 116 114 114 111 108 104 95 87 81 76 72 66 60 57 55
163 162 160 160 158 157 155 153 154 155 155 153 149 147 147 144 141 139 137 136 133 131 130 129 127 125 121 117 117 117 113 110 105 95 86 81 78 75 69 62 56 52
164 162 160 160 158 157 155 155 156 155 156 155 151 149 148 145 144 143 141 138 135 134 134 132 130 128 124 120 120 119 115 111 106 96 87 81 78 77 71 62 53 49
162 160 159 158 157 156 155 156 158 158 158 157 153 152 150 149 149 148 147 143 139 138 137 135 134 132 129 126 123 120 115 109 106 99 90 81 78 76 71 62 52 46
160 160 160 158 157 157 157 158 160 161 160 158 157 156 155 156 155 153 152 149 145 143 140 137 135 134 133 131 129 127 119 111 107 103 94 84 80 75 69 61 53 46
162 162 163 161 160 159 160 161 162 163 161 159 160 162 163 164 161 157 155 151 148 146 144 141 137 135 136 136 138 137 129 121 116 110 102 91 80 73 69 63 55 48
166 167 166 164 164 163 162 163 164 165 164 161 163 166 168 169 166 161 156 152 151 149 146 146 143 140 140 141 143 144 139 133 129 123 113 99 85 74 68 65 56 48
167 167 166 166 166 166 165 165 166 166 164 162 163 164 165 167 167 164 159 155 152 151 150 151 149 147 145 144 144 147 146 146 147 141 125 108 94 79 69 65 56 48
169 168 168 168 168 168 167 166 166 166 162 160 159 159 160 162 163 163 162 159 156 154 153 154 154 152 150 149 149 149 149 150 157 160 150 131 106 85 76 68 56 49
172 171 170 170 169 169 168 167 167 165 163 160 158 157 156 156 159 161 161 161 159 156 157 157 157 155 154 155 155 154 153 151 157 170 175 163 128 92 84 70 54 47
174 172 171 171 170 169 168 167 166 164 163 161 159 157 156 156 158 159 158 160 159 158 158 159 159 158 158 160 160 159 161 161 162 173 180 174 151 112 95 68 47 39
174 173 171 171 170 170 169 168 166 164 162 162 159 157 157 157 158 158 156 157 159 158 158 159 160 161 163 165 168 169 173 180 183 172 170 177 167 130 106 62 35 30
174 173 172 171 172 171 169 168 167 163 161 161 160 160 161 161 160 159 157 157 159 159 158 158 159 162 166 172 176 183 191 195 189 165 160 176 180 147 113 58 21 20
174 174 173 173 173 172 171 169 168 165 162 161 162 162 163 162 161 159 158 158 160 161 160 160 160 160 167 175 178 184 192 186 178 168 165 181 192 179 136 38 5 10
176 174 174 174 174 173 172 170 169 167 164 161 159 158 159 161 160 159 158 158 161 165 165 163 163 165 170 177 178 180 184 178 174 175 176 186 195 194 195 309 348 359
177 176 174 174 175 174 173 172 170 167 163 161 158 155 155 157 157 156 158 160 161 167 171 169 169 173 181 190 198 202 201 194 187 183 183 187 192 197 218 277 329 340
179 178 176 175 175 176 174 173 171 168 166 164 160 155 152 152 151 149 152 157 161 168 177 178 176 180 193 208 216 218 217 211 206 201 197 198 200 206 226 235 260 323
181 181 180 177 177 178 178 176 174 171 168 166 161 155 150 149 149 147 147 150 155 161 170 176 176 177 187 201 203 202 203 205 208 210 208 207 210 215 216 206 221 309
183 183 183 182 181 182 181 180 178 175 172 169 163 158 153 150 149 148 147 147 149 152 156 162 165 163 168 176 178 177 182 189 201 210 210 210 210 208 202 195 212 295